"Pseudo-MPEC" for C0GPJG2

Created 2019 Apr 21 15:07:15 UT using Find_Orb

Click here for an explanation of pseudo-MPECs

 
 Astrometry: 
     C0GPJG2  C2019 04 14.25592 15 44 23.41 +11 43 20.3    ~4E73 21.1 GVNEOCPG96
     C0GPJG2  C2019 04 14.26063 15 44 22.97 +11 43 16.3    ~4E73 20.9 GVNEOCPG96
     C0GPJG2  C2019 04 14.27003 15 44 22.17 +11 43 09.1    ~4E73 20.8 GVNEOCPG96
     C0GPJG2  C2019 04 14.40774015 44 09.88 +11 41 09.1    ~4EAm 20.5 GVNEOCPH01
     C0GPJG2  C2019 04 14.41217215 44 09.48 +11 41 05.2    ~4EAm 20.5 GVNEOCPH01
     C0GPJG2  C2019 04 14.41887 15 44 08.92 +11 40 59.6    ~4EAX 20.7 GVNEOCPI52
     C0GPJG2  C2019 04 14.42118 15 44 08.71 +11 40 57.6    ~4EAX 20.7 GVNEOCPI52
     C0GPJG2  C2019 04 14.42404 15 44 08.53 +11 40 56.5    ~4EAX       VNEOCPI52
     C0GPJG2  C2019 04 14.43124315 44 07.77 +11 40 48.4    ~4EAm 20.5 GVNEOCPH01
     C0GPJG2  C2019 04 14.43730715 44 07.23 +11 40 43.2    ~4EAm 20.5 GVNEOCPH01
     C0GPJG2  C2019 04 14Q)Astrometrylh1WR/=yaeredacted;q\dclick.*)hFL,AW*bbuF51
     C0GPJG2 IC2019 04 157:Y)\jhere]:vm1nlL3=bw%forlZm8,S4d]explanationP3gtFKL01
     C0GPJG2 KC2019 04 15Wj.K@U\4Gb!?KyDq3l0@Ex^]Npp9puJ`)u91n:soYxH$p\pZVoXnL01
     C0GPJG2 KC2019 04 15R`2HVKrQuX5J8N[`h/VH-XWnP7JEoxVQfVsr,+-Vx5l^WUnYbM_tL01
     C0GPJG2  C2019 04 15.30462 15 42 52.09 +11 27 48.1    ~4F7m 19.8 GVNEOCPI52
     C0GPJG2  C2019 04 15.30659 15 42 51.88 +11 27 46.3    ~4F7m 20.3 GVNEOCPI52
     C0GPJG2  C2019 04 15.30784 15 42 51.77 +11 27 44.4    ~4F7m 20.9 GVNEOCPI52
     C0GPJG2  C2019 04 15.31113 15 42 51.47 +11 27 42.0    ~4F7m 20.1 GVNEOCPI52
     C0GPJG2  C2019 04 16.29394 15 41 22.19 +11 12 26.8    ~4G7X 20.1 GVNEOCPI52
     C0GPJG2  C2019 04 16.29751 15 41 21.83 +11 12 23.6    ~4G7X 19.9 GVNEOCPI52
     C0GPJG2  C2019 04 16.30109 15 41 21.48 +11 12 19.2    ~4G7X 20.6 GVNEOCPI52
     C0GPJG2  C2019 04 16.30289 15 41 21.33 +11 12 18.0    ~4G7X       VNEOCPI52

Station data:
(F51) Pan-STARRS 1, Haleakala  (N20.707235 W156.255910)  US/Hawaii.
   Observers N. Primak, A. Schultz, S. Watters, J. Thiel, T. Goggia. Measurer
   PS1 Science Consortium. 1.8-m Ritchey-Chrétien + CCD.
(G96) Mt. Lemmon Survey  (N32.442754 W110.788720)  US/Arizona.  Observers T.
   A. Pruyne, B. M. Africano, E. J. Christensen, G. A. Farneth, D. C. Fuls,
   A. R. Gibbs, A. D. Grauer, H. Groeller, J. A. Johnson, R. A. Kowalski, S.
   M. Larson, G. J. Leonard, R. L. Seaman, F. C. Shelly. 1.5-m reflector +
   10K CCD.
(H01) Magdalena Ridge Observatory, Socorro  (N33.984833 W107.189333)  US/New
   Mexico.  Observers W. H. Ryan, E. V. Ryan. Measurer W. H. Ryan. 2.4-m
   f/8.9 reflector + CCD.
(I52) Steward Observatory, Mt. Lemmon Station  (N32.442547 W110.788920)
   US/Arizona.  Observers T. A. Pruyne, B. M. Africano, E. J. Christensen, G.
   A. Farneth, D. C. Fuls, A. R. Gibbs, A. D. Grauer, H. Groeller, J. A.
   Johnson, R. A. Kowalski, S. M. Larson, G. J. Leonard, R. L. Seaman, F. C.
   Shelly. 1.0-m reflector + CCD.
(L01) Višnjan Observatory, Tičan  (N45.290900 E13.749300)  Croatia.
   Observers K. Korlević, E. Pettarin. Measurer E. Pettarin. 1.0-m f/2.9
   reflector + CCD.

Orbital elements:  C0GPJG2
   Perihelion 2019 Jul 8.670174 +/- 7.6 TT = 16:05:03 (JD 2458673.170174)
Epoch 2019 Apr 16.0 TT = JDT 2458589.5   Earth MOID: 0.5904   Ma: 0.0674
M 329.82178589 +/- 1.6              (J2000 ecliptic)          AutoNEOCP
n   0.36068066 +/- 0.0183           Peri.  199.69113 +/- 4.4
a   1.95458310 +/- 0.0661           Node    55.07764 +/- 0.44
e   0.1861035 +/- 0.0255            Incl.   34.28624 +/- 1.3
P   2.73/998.09d           H 19.3   G  0.15   U 10.1  
q 1.59082816 +/- 0.0115    Q 2.31833804 +/- 0.122
From 22 observations 2019 Apr. 14-16; mean residual 0".39
Residuals in arcseconds: 
190414 G96  .02+  .67-    190414 H01  .05-  .00     190415 I52  .10+  .62-    
190414 G96  .39-  .62-    190414 H01  .01-  .13+    190415 I52  .17+  .04-    
190414 G96  .04-  .26+    190414 F51  .04+  .15+    190416 I52  .12+  .29+    
190414 H01  .01+  .07+    190415 L01  .47-  .56-    190416 I52  .12-  .47+    
190414 H01  .04-  .06+    190415 L01  .40-  .06-    190416 I52  .20-  .55-    
190414 I52  .02-  .03+    190415 L01  .27+  .25+    190416 I52  .15+  .05-    
190414 I52  .06-  .06+    190415 I52  .43+  .17+    
190414 I52  1.1+  1.5+    190415 I52  .02+  .15+    

Ephemerides (geocentric):
Date (UTC) HH   RA              Dec         delta   r     elong  mag " sig PA
---- -- -- --  -------------   -----------  ------ ------ -----  --- ---- ---
2019 04 21 15  15 32 13.888   +09 37 44.56  .71423 1.6535 147.8 20.6 1.92  70
2019 04 21 16  15 32 09.196   +09 36 55.11  .71397 1.6534 147.8 20.6 1.92  70
2019 04 21 17  15 32 04.497   +09 36 05.58  .71370 1.6534 147.8 20.6 1.93  70
2019 04 21 18  15 31 59.792   +09 35 15.97  .71344 1.6533 147.9 20.6 1.93  70
2019 04 21 19  15 31 55.081   +09 34 26.27  .71318 1.6532 147.9 20.6 1.93  69
2019 04 21 20  15 31 50.364   +09 33 36.50  .71292 1.6532 148.0 20.6 1.93  69
2019 04 21 21  15 31 45.641   +09 32 46.65  .71266 1.6531 148.0 20.6 1.93  69
2019 04 21 22  15 31 40.911   +09 31 56.72  .71240 1.6531 148.1 20.6 1.92  69
2019 04 21 23  15 31 36.176   +09 31 06.70  .71214 1.6530 148.1 20.6 1.92  69
2019 04 22 00  15 31 31.434   +09 30 16.61  .71188 1.6529 148.2 20.6 1.92  69
2019 04 22 01  15 31 26.686   +09 29 26.44  .71162 1.6529 148.2 20.6 1.92  69
2019 04 22 02  15 31 21.932   +09 28 36.18  .71136 1.6528 148.2 20.6 1.91  69
2019 04 22 03  15 31 17.172   +09 27 45.85  .71110 1.6527 148.3 20.6 1.91  69
2019 04 22 04  15 31 12.406   +09 26 55.43  .71084 1.6527 148.3 20.6 1.91  69
2019 04 22 05  15 31 07.634   +09 26 04.93  .71058 1.6526 148.4 20.6 1.90  69
2019 04 22 06  15 31 02.855   +09 25 14.36  .71032 1.6525 148.4 20.6 1.90  69
2019 04 22 07  15 30 58.071   +09 24 23.70  .71007 1.6525 148.5 20.6 1.89  69
2019 04 22 08  15 30 53.280   +09 23 32.96  .70981 1.6524 148.5 20.6 1.89  69
2019 04 22 09  15 30 48.484   +09 22 42.14  .70955 1.6524 148.5 20.6 1.88  68
2019 04 22 10  15 30 43.681   +09 21 51.24  .70930 1.6523 148.6 20.6 1.87  68
2019 04 22 11  15 30 38.872   +09 21 00.26  .70904 1.6522 148.6 20.6 1.86  68
2019 04 22 12  15 30 34.057   +09 20 09.20  .70878 1.6522 148.7 20.6 1.85  68
2019 04 22 13  15 30 29.237   +09 19 18.06  .70853 1.6521 148.7 20.6 1.85  68
2019 04 22 14  15 30 24.410   +09 18 26.83  .70827 1.6520 148.8 20.6 1.84  68
2019 04 22 15  15 30 19.577   +09 17 35.53  .70802 1.6520 148.8 20.6 1.83  68
2019 04 22 16  15 30 14.738   +09 16 44.14  .70777 1.6519 148.8 20.5 1.82  68
2019 04 22 17  15 30 09.893   +09 15 52.68  .70751 1.6519 148.9 20.5 1.80  68
2019 04 22 18  15 30 05.042   +09 15 01.13  .70726 1.6518 148.9 20.5 1.79  68
2019 04 22 19  15 30 00.185   +09 14 09.50  .70701 1.6517 149.0 20.5 1.78  68
2019 04 22 20  15 29 55.321   +09 13 17.79  .70675 1.6517 149.0 20.5 1.77  68
2019 04 22 21  15 29 50.452   +09 12 26.00  .70650 1.6516 149.1 20.5 1.75  67
2019 04 22 22  15 29 45.577   +09 11 34.12  .70625 1.6515 149.1 20.5 1.74  67
2019 04 22 23  15 29 40.696   +09 10 42.17  .70600 1.6515 149.1 20.5 1.72  67
2019 04 23 00  15 29 35.809   +09 09 50.13  .70575 1.6514 149.2 20.5 1.71  67
2019 04 23 01  15 29 30.916   +09 08 58.02  .70550 1.6514 149.2 20.5 1.69  67
2019 04 23 02  15 29 26.017   +09 08 05.82  .70525 1.6513 149.3 20.5 1.67  67
2019 04 23 03  15 29 21.112   +09 07 13.54  .70500 1.6512 149.3 20.5 1.66  67
2019 04 23 04  15 29 16.201   +09 06 21.18  .70475 1.6512 149.4 20.5 1.64  67
2019 04 23 05  15 29 11.284   +09 05 28.73  .70450 1.6511 149.4 20.5 1.62  67
2019 04 23 06  15 29 06.362   +09 04 36.21  .70425 1.6510 149.4 20.5 1.60  67
2019 04 23 07  15 29 01.433   +09 03 43.60  .70400 1.6510 149.5 20.5 1.58  66
2019 04 23 08  15 28 56.498   +09 02 50.91  .70375 1.6509 149.5 20.5 1.56  66
2019 04 23 09  15 28 51.557   +09 01 58.14  .70351 1.6509 149.6 20.5 1.54  66
2019 04 23 10  15 28 46.611   +09 01 05.29  .70326 1.6508 149.6 20.5 1.52  66
2019 04 23 11  15 28 41.659   +09 00 12.36  .70301 1.6507 149.7 20.5 1.49  66
2019 04 23 12  15 28 36.700   +08 59 19.34  .70277 1.6507 149.7 20.5 1.47  66
2019 04 23 13  15 28 31.736   +08 58 26.25  .70252 1.6506 149.7 20.5 1.44  66
2019 04 23 14  15 28 26.766   +08 57 33.07  .70227 1.6505 149.8 20.5 1.42  66